Location: McFarlands Corners
(41.4117°N, 81.3382°W)
Time: 02:02:19
(UTC+00:00)

Transit 4A - Pass Details

Date: 25 February 2026
Orbit: 863 x 978 km, 66.8° (Epoch: 13 March)

Event Time Altitude Azimuth Distance (km) Brightness Sun altitude
Rises 06:32:09 0° 183° (S) 3,439 - -55.5°
Reaches altitude 10° 06:34:45 10° 175° (S) 2,515 - -55.3°
Maximum altitude 06:40:01 37° 110° (ESE) 1,358 - -54.9°
Drops below altitude 10° 06:45:26 10° 45° (NE) 2,590 - -54.4°
Exits shadow 06:47:06 - 40° (NE) 3,179 11.2 -54.3°
Sets 06:48:09 0° 38° (NE) 3,554 11.5 -54.2°
